This is the latest recevied weather packets stored in our database for station/object KG5MMT-12. If no packets are shown the sender has not sent any weather packets the latest 10 day(s).
| Time | Temp. | Humidity | Pressure | Rain* | Wind** | Luminosity | Snow |
|---|---|---|---|---|---|---|---|
| 1777486445 | 16.11° C | 24% | 0 hPa | 0 mm | - | - | - |
| 1777486145 | 16.11° C | 24% | 0 hPa | 0 mm | - | - | - |
| 1777485845 | 16.11° C | 25% | 0 hPa | 0 mm | - | - | - |
| 1777485545 | 16.11° C | 28% | 0 hPa | 0 mm | - | - | - |
| 1777485245 | 15.56° C | 30% | 0 hPa | 0 mm | - | - | - |
| 1777484945 | 15° C | 30% | 0 hPa | 0 mm | - | - | - |
| 1777484345 | 15.56° C | 32% | 0 hPa | 0 mm | - | - | - |
| 1777484045 | 15° C | 31% | 0 hPa | 0 mm | - | - | - |
| 1777483745 | 15° C | 31% | 0 hPa | 0 mm | - | - | - |
| 1777483446 | 15° C | 28% | 0 hPa | 0 mm | - | - | - |
| 1777483145 | 15° C | 27% | 0 hPa | 0 mm | - | - | - |
| 1777482845 | 14.44° C | 26% | 0 hPa | 0 mm | - | - | - |
| 1777482245 | 13.33° C | 45% | 0 hPa | 0 mm | - | - | - |
| 1777481945 | 13.33° C | 44% | 0 hPa | 0 mm | - | - | - |
| 1777481645 | 13.33° C | 45% | 0 hPa | 0 mm | - | - | - |
| 1777480745 | 12.22° C | 49% | 0 hPa | 0 mm | - | - | - |
| 1777480445 | 12.22° C | 49% | 0 hPa | 0 mm | - | - | - |
| 1777480145 | 11.67° C | 51% | 0 hPa | 0 mm | - | - | - |
| 1777479845 | 11.11° C | 52% | 0 hPa | 0 mm | - | - | - |
| 1777479545 | 11.11° C | 55% | 0 hPa | 0 mm | - | - | - |
| 1777479245 | 10.56° C | 55% | 0 hPa | 0 mm | - | - | - |
| 1777478945 | 10° C | 56% | 0 hPa | 0 mm | - | - | - |
| 1777478345 | 10° C | 57% | 0 hPa | 0 mm | - | - | - |
| 1777477745 | 10° C | 58% | 0 hPa | 0 mm | - | - | - |
| 1777477145 | 9.44° C | 60% | 0 hPa | 0 mm | - | - | - |
* Rain latest hour (hover to see other rain measurements)
** Current wind speed in m/s (hover to see current wind gust speed)